SCP
0 0 0 0 0 0 0 0 0 0 0 0 0 0 0 0 0 0 0 0 0 0 0 0 0 0 0 0 0 0 0 0 0 0 0 0 0 0 0 0 0 0 0
0 0 0 0 0 0 0 0 0 0 0 0 0 0 0 0 0 0 0 0 0 0 0 0 0 0 0 0 0 0 0 0 0 0 0 0 0 0 0 0 0 0 0
0 0 0 0 0 0 0 0 0 0 0 0 0 0 0 0 0 0 0 0 0 0 0 0 0 0 0 0 0 0 0 0 0 0 0 0 0 0 0 0 0 0 0
0 0 0 0 0 0 0 0 0 0 0 0 0 0 0 0 0 0 0 0 0 0 0 0 0 0 0 0 0 0 0 0 0 0 0 0 0 0 0 0 0 0 0
0 0 0 0 0 0 0 0 0 0 0 0 0 0 0 0 0 0 0 0 0 0 0 0 0 0 0 0 0 0 0 0 0 0 0 0 0 0 0 0 0 0 0
0 0 0 0 0 0 0 0 0 0 0 0 0 0 0 0 0 0 0 0 0 0 0 0 0 0 0 0 0 0 0 0 0 0 0 0 0 0 0 0 0 0 0
0 0 0 0 0 0 0 0 0 0 0 0 0 0 0 0 0 0 0 0 0 0 0 0 0 0 0 0 0 0 0 0 0 0 0 0 0 0 0 0 0 0 0
0 0 0 0 0 0 0 0 0 0 0 0 0 0 0 0 0 0 0 0 0 0 0 0 0 0 0 0 0 0 0 0 0 0 0 0 0 0 0 0 0 0 0
0 0 0 0 0 0 0 0 0 0 0 0 0 0 0 0 0 0 0 0 0 0 0 0 0 0 0 0 0 0 0 0 0 0 0 0 0 0 0 0 0 0 0
0 0 0 0 0 0 0 0 0 0 0 0 0 0 0 0 0 0 0 0 0 0 0 0 0 0 0 0 0 0 0 0 0 0 0 0 0 0 0 0 0 0 0
0 0 0 0 0 0 0 0 0 0 0 0 0 0 0 0 0 0 0 0 0 0 0 0 0 0 0 0 0 0 0 0 0 0 0 0 0 0 0 0 0 0 0
0 0 0 0 0 0 0 0 0 0 0 0 0 0 0 0 0 0 0 0 0 0 0 0 0 0 0 0 0 0 0 0 0 0 0 0 0 0 0 0 0 0 0
0 0 0 0 0 0 0 0 0 0 0 0 0 0 0 0 0 0 0 0 0 0 0 0 0 0 0 0 0 0 0 0 0 0 0 0 0 0 0 0 0 0 0
0 0 0 0 0 0 0 0 0 0 0 0 0 0 0 0 0 0 0 0 0 0 0 0 0 0 0 0 0 0 0 0 0 0 0 0 0 0 0 0 0 0 0
0 0 0 0 0 0 0 0 0 0 0 0 0 0 0 0 0 0 0 0 0 0 0 0 0 0 0 0 0 0 0 0 0 0 0 0 0 0 0 0 0 0 0
0 0 0 0 0 0 0 0 0 0 0 0 0 0 0 0 0 0 0 0 0 0 0 0 0 0 0 0 0 0 0 0 0 0 0 0 0 0 0 0 0 0 0
0 0 0 0 0 0 0 0 0 0 0 0 0 0 0 0 0 0 0 0 0 0 0 0 0 0 0 0 0 0 0 0 0 0 0 0 0 0 0 0 0 0 0
0 0 0 0 0 0 0 0 0 0 0 0 0 0 0 0 0 0 0 0 0 0 0 0 0 0 0 0 0 0 0 0 0 0 0 0 0 0 0 0 0 0 0
0 0 0 0 0 0 0 0 0 0 0 0 0 0 0 0 0 0 0 0 0 0 0 0 0 0 0 0 0 0 0 0 0 0 0 0 0 0 0 0 0 0 0
0 0 0 0 0 0 0 0 0 0 0 0 0 0 0 0 0 0 0 0 0 0 0 0 0 0 0 0 0 0 0 0 0 0 0 0 0 0 0 0 0 0 0
0 0 0 0 0 0 0 0 0 0 0 0 0 0 0 0 0 0 0 0 0 0 0 0 0 0 0 0 0 0 0 0 0 0 0 0 0 0 0 0 0 0 0
0 0 0 0 0 0 0 0 0 0 0 0 0 0 0 0 0 0 0 0 0 0 0 0 0 0 0 0 0 0 0 0 0 0 0 0 0 0 0 0 0 0 0
0 0 0 0 0 0 0 0 0 0 0 0 0 0 0 0 0 0 0 0 0 0 0 0 0 0 0 0 0 0 0 0 0 0 0 0 0 0 0 0 0 0 0
0 0 0 0 0 0 0 0 0 0 0 0 0 0 0 0 0 0 0 0 0 0 0 0 0 0 0 0 0 0 0 0 0 0 0 0 0 0 0 0 0 0 0
0 0 0 0 0 0 0 0 0 0 0 0 0 0 0 0 0 0 0 0 0 0 0 0 0 0 0 0 0 0 0 0 0 0 0 0 0 0 0 0 0 0 0
0 0 0 0 0 0 0 0 0 0 0 0 0 0 0 0 0 0 0 0 0 0 0 0 0 0 0 0 0 0 0 0 0 0 0 0 0 0 0 0 0 0 0
Wind_Speed
0 0 1 1 1 1 1 2 2 2 2 3 3 3 3 3 3 2 2 2 2 3 3 4 4 5 4 4 4 4 4 5 7 7 6 6 7 8 7 7 7 8 7
1 0 0 1 1 1 1 2 2 2 2 2 3 3 3 3 2 3 3 3 3 3 4 4 4 4 5 4 4 4 4 5 6 8 7 7 8 8 8 8 7 7 8
1 1 1 1 1 1 1 2 2 2 2 3 3 3 3 3 3 3 3 3 3 3 4 4 4 4 5 4 5 5 4 5 5 6 7 6 6 7 8 8 8 7 8
1 1 1 1 1 2 2 2 2 2 2 3 3 3 3 3 3 3 3 3 3 3 4 4 5 5 5 6 5 6 5 5 6 6 6 6 6 7 7 7 8 7 7
2 2 2 2 2 2 2 2 2 2 2 2 3 3 3 3 3 3 3 3 4 4 4 4 4 5 6 6 5 6 6 5 5 6 6 6 6 7 7 7 8 8 8
3 3 2 2 2 2 2 2 2 2 2 2 2 3 3 3 4 4 4 3 3 4 4 4 4 5 5 7 8 8 8 7 6 6 6 7 8 8 7 7 7 7 7
3 3 2 2 2 2 2 2 2 2 2 2 3 3 3 4 5 5 4 4 4 4 4 4 4 4 5 6 7 8 7 8 8 7 8 8 9 8 9 9 8 8 9
3 3 3 3 3 2 2 3 3 2 2 3 3 3 4 4 5 5 4 4 4 4 4 4 5 5 5 6 6 6 6 6 7 6 7 8 8 8 8 9 9 9 9
4 4 3 3 3 3 3 3 3 2 3 3 3 3 4 4 5 5 4 3 3 4 4 4 5 6 7 8 7 7 7 6 7 8 9 9 10 10 9 6 6 6 7
5 4 4 4 4 4 4 3 3 2 3 3 3 3 4 5 5 5 4 3 4 4 4 4 5 6 8 7 6 6 7 7 7 7 7 8 7 7 8 6 6 6 7
4 3 3 4 4 4 3 3 3 2 3 3 3 4 4 5 5 5 4 3 4 4 4 4 4 7 8 7 7 5 7 8 7 7 6 6 5 5 5 5 5 6 7
3 3 4 4 3 3 3 3 2 3 3 3 3 4 3 3 4 5 5 5 5 4 4 4 4 7 7 7 6 7 8 7 5 5 5 5 5 5 5 6 6 6 7
3 3 3 3 3 3 3 3 3 3 3 3 3 4 4 3 3 5 6 7 7 5 5 6 7 7 7 6 6 7 5 4 4 5 5 5 5 6 6 6 6 6 7
4 4 3 3 4 3 3 3 4 4 4 4 4 4 4 3 3 3 3 4 5 6 5 5 6 6 5 5 5 4 3 4 4 5 5 5 5 5 5 5 6 6 6
4 4 4 4 4 4 4 4 5 5 5 5 4 4 4 5 4 5 4 4 4 4 4 3 3 4 4 4 3 3 3 4 4 4 5 5 5 5 5 5 5 6 6
4 4 4 4 4 4 4 4 6 7 7 9 8 7 5 7 7 7 7 7 7 5 3 4 4 4 5 5 4 4 4 4 4 5 5 5 5 6 6 6 5 6 6
5 5 4 4 4 4 4 4 5 5 6 8 9 9 9 9 8 8 8 8 7 5 4 5 5 5 5 5 5 5 5 5 4 5 5 5 5 5 6 6 6 6 6
5 5 5 4 4 4 5 5 5 5 4 4 6 8 9 9 9 8 7 6 5 4 5 5 5 5 5 5 5 5 5 5 5 5 5 5 5 5 6 6 6 6 7
5 4 4 4 4 4 4 5 5 5 5 5 4 4 6 7 8 7 5 4 5 5 5 5 5 5 5 5 5 5 5 5 5 5 5 5 5 5 6 6 6 7 7
5 6 5 4 4 4 4 5 5 5 5 5 5 5 3 3 4 4 4 5 5 6 5 6 5 6 5 5 5 5 5 5 6 5 5 5 5 5 6 7 6 6 6
4 4 5 5 5 5 5 5 5 5 5 5 6 5 6 4 5 6 5 5 5 6 6 6 6 6 6 5 5 6 7 6 6 5 5 5 5 5 5 5 6 6 6
4 4 4 5 5 5 5 5 5 6 6 7 5 5 7 5 5 5 6 6 6 5 5 5 6 6 5 6 6 6 7 7 6 6 5 5 5 5 5 5 5 5 5
4 5 5 5 5 5 5 5 6 6 6 6 6 5 5 5 6 6 6 6 5 5 5 5 6 6 6 6 6 7 7 7 6 6 6 6 5 5 4 5 6 5 5
5 5 6 5 5 5 6 6 6 6 6 6 6 6 6 6 6 6 6 5 5 5 5 5 6 8 9 7 6 6 7 7 7 6 8 7 6 5 4 4 4 5 4
5 6 6 6 6 6 6 6 6 6 6 6 6 6 6 6 6 6 6 5 6 6 7 7 6 7 9 10 8 7 8 9 7 5 5 5 6 5 4 4 4 4 4
5 6 6 5 6 6 6 6 6 7 6 6 6 6 6 6 6 6 5 5 5 6 6 6 7 8 9 8 9 9 9 9 8 7 6 5 5 5 4 4 4 4 4
Wind_Direction
296 301 304 316 324 326 313 315 319 324 327 327 322 325 327 329 335 332 322 324 318 318 320 320 317 316 315 313 306 298 288 281 279 292 305 312 313 314 314 310 308 306 304
253 221 248 292 312 319 311 315 321 320 319 320 319 323 324 324 329 329 322 311 305 306 310 313 312 314 312 312 310 305 298 292 286 291 302 309 309 312 311 311 310 307 303
223 210 225 252 287 296 302 312 320 318 318 321 321 318 318 320 321 317 309 308 305 303 307 307 309 310 308 309 306 302 301 301 294 291 296 303 305 313 315 312 311 307 304
211 213 229 246 256 269 282 300 306 309 312 314 316 314 315 315 313 312 308 303 303 307 313 313 313 312 309 307 303 303 303 299 296 293 296 301 305 314 314 312 311 311 307
206 215 233 243 251 259 269 282 296 304 304 308 311 312 313 308 311 309 302 297 299 304 310 312 315 318 323 317 308 308 307 302 302 299 297 300 304 312 311 312 306 310 306
211 225 237 240 246 252 262 271 280 284 291 297 296 301 304 302 312 308 304 295 299 303 308 312 315 315 316 312 311 313 310 304 301 297 296 298 302 307 310 307 306 308 307
219 231 235 237 247 253 258 263 268 274 283 284 286 288 289 300 306 303 302 292 294 298 302 306 309 315 311 306 305 301 298 298 296 295 295 298 304 308 308 304 303 301 298
224 232 231 229 242 249 248 254 263 267 265 268 277 281 287 300 305 300 299 282 289 295 297 299 303 308 313 312 305 301 300 301 301 296 295 300 305 309 306 301 301 300 297
230 233 232 226 231 236 241 250 257 259 262 266 275 279 281 291 298 295 291 285 286 291 294 298 299 301 314 315 306 303 305 307 308 307 305 307 311 315 315 305 304 302 302
232 235 233 226 226 232 239 248 254 250 257 266 271 275 277 286 297 291 283 281 286 291 293 293 299 305 312 311 305 304 303 308 313 313 308 307 308 313 318 309 304 301 305
232 232 232 227 228 235 242 246 247 248 253 257 265 273 276 280 287 285 278 276 282 286 288 292 299 306 304 304 302 300 304 311 307 305 305 307 311 313 315 312 305 296 294
223 227 231 231 230 227 231 242 242 239 246 255 263 273 274 277 280 284 279 273 283 280 282 288 296 302 300 302 301 306 310 308 300 301 301 304 308 309 310 309 303 297 289
216 229 234 234 233 225 223 232 238 237 244 254 257 266 273 272 275 276 275 274 273 274 281 290 297 298 297 296 303 308 304 295 295 295 297 300 303 304 306 305 303 300 294
219 233 232 230 236 231 227 227 231 234 240 247 252 260 268 270 270 270 272 275 270 269 276 284 287 290 290 297 300 295 289 290 289 288 292 297 303 305 306 309 308 311 306
226 234 238 237 238 238 234 232 233 237 231 238 249 252 260 267 267 266 271 272 269 269 278 272 276 280 281 284 287 286 285 284 280 284 288 294 300 302 303 306 303 303 299
226 233 235 237 239 241 244 253 241 243 247 243 250 255 260 266 281 273 270 272 275 278 268 264 267 268 271 275 277 279 276 278 281 283 282 284 291 296 300 301 299 297 297
230 233 235 235 237 239 243 248 260 255 246 250 252 254 259 268 271 273 274 274 268 259 252 261 265 267 268 269 268 270 272 275 275 273 276 279 282 286 289 293 296 296 295
235 234 233 236 238 240 241 246 251 256 261 260 258 257 262 266 268 273 276 269 257 244 250 256 259 262 263 264 266 269 272 272 267 268 269 272 274 277 280 284 288 290 293
233 234 235 240 240 241 242 244 246 248 253 263 270 264 264 270 267 267 260 244 250 253 253 254 256 258 258 259 260 261 263 265 267 266 263 263 266 270 272 276 281 284 284
235 236 234 237 239 238 238 241 244 244 247 252 256 262 263 259 258 258 244 243 247 252 254 256 257 256 255 255 255 256 258 259 260 259 262 261 260 263 267 271 275 279 280
232 231 229 236 237 237 238 240 243 244 245 251 255 254 248 248 254 256 254 249 248 251 253 255 257 255 251 249 249 250 253 255 253 253 256 258 258 261 265 266 269 270 277
229 230 229 235 238 238 241 243 244 245 248 253 259 258 250 249 251 254 253 253 251 250 250 251 253 251 247 244 244 247 249 250 250 248 251 253 252 258 261 261 266 272 275
227 232 235 238 241 241 242 244 244 245 248 251 254 254 246 246 249 251 255 258 258 254 248 244 249 251 247 242 241 241 244 246 245 243 245 249 251 252 252 256 261 270 279
226 229 233 236 238 239 240 244 245 247 248 250 250 249 249 249 251 254 256 258 259 261 255 247 246 251 253 252 248 244 245 247 244 236 233 237 242 245 247 254 262 268 276
225 228 231 232 234 238 241 243 245 247 246 248 249 249 250 251 252 254 253 253 256 257 260 259 253 252 253 252 252 252 253 252 248 233 223 225 233 237 242 251 258 268 274
227 230 233 234 235 236 238 241 244 245 245 246 247 249 249 250 252 255 254 252 254 258 261 261 257 256 259 258 256 256 254 250 241 226 215 217 225 232 232 241 251 260 269